"datetime","# probes","# resolvers","can_ipv6","can_ipv6_prbs","can_tcp","can_tcp_prbs","can_tcp6","can_tcp6_prbs","does_ecs","does_ecs_prbs","does_flagday","does_flagday_prbs","does_rov4","does_rov4_prbs","does_rov6","does_rov6_prbs","does_qnamemin","doesnt_qnamemin","does_qnamemin_prbs","doesnt_qnamemin_prbs","does_nxdomain","doesnt_nxdomain","does_nxdomain_prbs","doesnt_nxdomain_prbs","has_ta_19036","hasnt_ta_19036","has_ta_19036_prbs","hasnt_ta_19036_prbs","has_ta_20326","hasnt_ta_20326","has_ta_20326_prbs","hasnt_ta_20326_prbs","can_rsamd5","cannot_rsamd5","broken_rsamd5","can_rsamd5_prbs","cannot_rsamd5_prbs","broken_rsamd5_prbs","can_dsa","cannot_dsa","broken_dsa","can_dsa_prbs","cannot_dsa_prbs","broken_dsa_prbs","can_rsasha1","cannot_rsasha1","broken_rsasha1","can_rsasha1_prbs","cannot_rsasha1_prbs","broken_rsasha1_prbs","can_dsansec3","cannot_dsansec3","broken_dsansec3","can_dsansec3_prbs","cannot_dsansec3_prbs","broken_dsansec3_prbs","can_rsansec3","cannot_rsansec3","broken_rsansec3","can_rsansec3_prbs","cannot_rsansec3_prbs","broken_rsansec3_prbs","can_rsasha256","cannot_rsasha256","broken_rsasha256","can_rsasha256_prbs","cannot_rsasha256_prbs","broken_rsasha256_prbs","can_rsasha512","cannot_rsasha512","broken_rsasha512","can_rsasha512_prbs","cannot_rsasha512_prbs","broken_rsasha512_prbs","can_eccgost","cannot_eccgost","broken_eccgost","can_eccgost_prbs","cannot_eccgost_prbs","broken_eccgost_prbs","can_ecdsa256","cannot_ecdsa256","broken_ecdsa256","can_ecdsa256_prbs","cannot_ecdsa256_prbs","broken_ecdsa256_prbs","can_ecdsa384","cannot_ecdsa384","broken_ecdsa384","can_ecdsa384_prbs","cannot_ecdsa384_prbs","broken_ecdsa384_prbs","can_ed25519","cannot_ed25519","broken_ed25519","can_ed25519_prbs","cannot_ed25519_prbs","broken_ed25519_prbs","can_ed448","cannot_ed448","broken_ed448","can_ed448_prbs","cannot_ed448_prbs","broken_ed448_prbs","can_gost","cannot_gost","broken_gost","can_gost_prbs","cannot_gost_prbs","broken_gost_prbs","can_sha384","cannot_sha384","broken_sha384","can_sha384_prbs","cannot_sha384_prbs","broken_sha384_prbs","is_internal","is_forwarding","is_external","is_internal_prbs","is_forwarding_prbs","is_external_prbs"
2017-06-20T23:59:59Z,249,448,444,246,448,249,439,245,74,61,0,0,0,0,0,0,2,446,1,248,2,444,1,246,0,0,0,0,0,0,0,0,352,19,76,191,33,57,372,75,0,202,69,1,446,1,0,248,23,1,373,74,0,203,69,1,448,0,0,249,22,1,448,0,0,249,22,1,447,0,0,249,21,1,19,427,2,16,238,2,443,4,0,246,23,1,443,4,1,246,24,2,0,446,2,0,248,2,0,446,2,0,248,2,87,359,2,64,206,2,444,4,0,246,24,1,363,27,58,203,32,47
2017-06-21T23:59:59Z,251,456,451,247,456,251,446,246,78,63,0,0,0,0,0,0,2,454,1,250,2,452,1,248,0,0,0,0,0,0,0,0,357,17,80,193,32,60,379,75,0,205,69,1,454,0,0,250,21,1,380,74,0,204,69,1,456,0,0,251,22,1,454,1,0,249,23,1,455,0,0,250,22,1,19,434,2,16,239,2,449,5,0,245,24,1,451,4,0,247,23,1,0,454,2,0,250,2,0,454,2,0,250,2,88,366,2,65,207,2,450,4,0,246,23,1,369,27,60,204,33,48
2017-06-22T23:59:59Z,255,459,454,251,459,255,447,249,77,61,0,0,0,0,0,0,2,457,1,254,2,455,1,252,0,0,0,0,0,0,0,0,357,19,81,194,33,61,379,78,0,207,71,1,454,3,0,252,23,1,378,79,0,205,72,1,459,0,0,255,21,1,456,2,0,252,22,1,456,2,0,252,22,1,20,436,2,17,243,2,450,6,1,248,24,2,451,6,1,249,24,2,0,456,3,0,253,3,0,457,2,0,254,2,92,365,2,67,209,2,452,5,0,250,24,1,370,29,60,207,34,47
2017-06-23T23:59:58Z,251,458,453,247,457,251,452,247,81,62,0,0,0,0,0,0,2,456,1,250,2,455,1,249,0,0,0,0,0,0,0,0,357,17,82,193,30,59,377,79,0,203,69,1,456,0,0,250,20,1,378,78,0,203,69,1,458,0,0,251,20,1,457,0,0,250,20,1,456,1,0,250,21,1,19,436,2,16,239,2,452,4,0,246,22,1,452,5,0,247,23,1,0,456,2,0,250,2,0,456,2,0,250,2,93,363,2,67,206,2,451,5,0,246,23,1,367,30,61,203,34,47
2017-06-24T23:59:59Z,253,460,455,249,459,253,450,249,82,64,0,0,0,0,0,0,2,458,1,252,2,456,1,250,0,0,0,0,0,0,0,0,357,18,83,194,32,61,377,82,0,204,72,1,459,0,0,253,21,1,379,80,0,205,70,1,460,0,0,253,21,1,459,0,0,252,21,1,458,1,0,252,22,1,19,438,2,16,241,2,453,5,0,248,24,1,454,5,0,249,24,1,0,458,2,0,252,2,0,458,2,0,252,2,93,365,2,67,208,2,453,4,1,247,23,2,368,30,62,204,34,48
2017-06-25T23:59:59Z,254,459,454,250,459,254,451,248,79,61,0,0,0,0,0,0,0,459,0,254,2,454,1,251,0,0,0,0,0,0,0,0,358,18,82,196,33,61,376,82,0,205,74,2,457,2,0,252,24,2,378,80,0,206,71,2,459,0,0,254,22,2,458,0,0,254,21,2,458,0,0,254,22,2,19,439,0,16,243,2,453,4,0,250,23,2,452,6,0,249,26,2,0,459,0,0,254,2,0,459,0,0,254,2,93,366,0,67,210,2,451,6,0,248,25,2,367,30,62,205,34,48
2017-06-26T23:59:59Z,256,464,459,252,464,256,439,250,83,66,0,0,0,0,0,0,2,462,1,255,3,458,2,251,0,0,0,0,0,0,0,0,361,18,84,197,33,61,379,84,0,206,75,1,462,2,0,254,24,1,381,82,0,207,73,1,464,0,0,256,22,1,461,2,0,255,24,1,463,0,0,256,22,1,19,442,2,16,244,2,457,5,0,251,25,1,459,5,0,252,25,1,0,462,2,0,255,2,0,462,2,0,255,2,94,368,2,68,210,2,456,6,0,251,26,1,370,32,62,205,37,49
2017-06-27T23:59:59Z,252,459,454,248,459,252,440,247,81,63,0,0,0,0,0,0,2,457,1,251,2,454,1,248,0,0,0,0,0,0,0,0,358,18,82,195,31,59,378,80,0,205,70,1,459,0,0,252,20,1,379,79,0,205,69,1,459,0,0,252,20,1,457,1,0,252,21,1,458,0,0,252,20,1,18,438,2,15,241,2,453,4,0,248,22,1,455,4,0,249,22,1,0,457,2,0,251,2,0,457,2,0,251,2,93,364,2,67,206,2,453,4,0,248,22,1,371,29,59,206,33,47
2017-06-28T23:59:59Z,256,463,458,252,463,256,447,251,82,62,0,0,0,0,0,0,4,459,2,254,2,458,1,252,0,0,0,0,0,0,0,0,361,17,84,198,32,61,382,80,0,208,72,2,460,3,0,254,22,2,383,79,0,209,70,1,463,0,0,256,22,2,462,0,0,256,22,2,462,0,0,256,21,2,21,437,4,17,243,4,455,6,0,251,24,2,456,7,0,251,24,2,0,459,4,1,254,3,0,459,4,0,254,4,92,367,4,66,210,4,453,8,0,249,26,2,370,32,61,207,35,47
2017-06-29T23:59:59Z,255,460,455,251,459,254,443,248,83,65,0,0,0,0,0,0,2,458,1,254,2,455,1,251,0,0,0,0,0,0,0,0,358,18,83,196,33,60,380,79,0,208,70,1,460,0,0,255,21,1,379,80,0,207,70,1,460,0,0,255,22,1,459,0,0,255,21,1,459,0,0,255,22,1,18,439,2,15,244,2,453,5,0,250,25,1,456,4,0,252,24,1,0,458,2,0,254,2,0,458,2,0,254,2,94,364,2,68,209,2,453,5,0,250,24,1,367,31,62,205,35,48
2017-06-30T23:59:59Z,255,460,455,251,460,255,446,250,81,61,0,0,0,0,0,0,2,458,1,254,2,455,1,251,0,0,0,0,0,0,0,0,359,17,82,198,29,59,379,79,0,208,68,1,459,0,0,254,19,1,379,79,0,207,69,1,460,0,0,255,20,1,457,1,0,253,21,1,457,1,0,253,20,1,19,439,2,16,244,2,452,6,0,249,23,1,453,7,0,249,25,1,0,458,2,0,254,2,0,457,3,0,254,3,91,367,2,65,211,2,454,4,0,251,21,1,369,32,59,206,35,46
2017-07-01T23:59:59Z,256,463,458,252,463,256,440,252,77,59,0,0,0,0,0,0,4,459,2,254,2,458,1,252,0,0,0,0,0,0,0,0,363,18,80,200,31,57,385,76,0,210,69,1,462,0,0,255,21,1,384,77,0,211,69,1,463,0,0,256,21,1,459,2,0,254,21,1,458,3,0,253,22,1,22,437,4,18,243,3,454,7,0,250,24,1,456,7,0,251,24,1,0,459,4,0,254,3,0,459,4,0,254,3,92,367,4,66,211,3,456,5,0,251,23,1,374,29,60,210,33,46
2017-07-02T23:59:59Z,255,461,456,251,461,255,437,248,78,59,0,0,0,0,0,0,4,457,2,253,2,456,1,251,0,0,0,0,0,0,0,0,358,19,82,196,32,59,382,77,0,208,67,1,460,0,0,254,21,1,382,77,0,208,68,1,461,0,0,255,21,1,459,0,0,254,21,1,459,0,0,254,21,1,19,438,4,16,243,3,453,6,0,249,25,1,455,6,0,250,25,1,0,457,4,0,253,3,0,457,4,0,253,3,90,367,4,65,211,3,455,4,0,251,22,1,374,27,60,209,31,47
2017-07-03T23:59:59Z,256,461,456,252,461,256,435,250,82,63,0,0,0,0,0,0,4,457,2,254,2,456,2,252,0,0,0,0,0,0,0,0,359,20,80,197,32,60,378,81,0,208,71,2,457,3,0,254,23,2,381,78,0,209,70,2,461,0,0,256,22,2,459,0,0,255,22,2,457,2,0,254,22,2,22,435,4,18,243,4,452,7,0,250,25,2,452,8,1,250,26,3,0,457,4,0,254,4,0,457,4,0,254,4,93,364,4,67,210,4,452,7,0,251,25,2,371,30,60,208,34,48
2017-07-04T23:59:59Z,258,470,465,254,470,258,440,252,84,64,0,0,0,0,0,0,2,468,1,257,2,465,2,254,0,0,0,0,0,0,0,0,364,20,84,200,33,61,383,84,1,210,72,3,468,1,0,257,23,2,387,81,0,211,70,2,470,0,0,258,22,2,468,0,0,257,22,2,468,0,0,257,22,2,23,445,2,19,246,3,463,6,0,253,26,2,465,5,0,254,25,2,0,468,2,0,257,3,0,467,3,0,257,4,95,373,2,67,214,3,463,5,0,254,25,2,376,29,65,211,34,50
2017-07-05T23:59:59Z,259,470,465,255,470,259,444,252,85,64,0,0,0,0,0,0,0,470,0,259,2,465,2,255,0,0,0,0,0,0,0,0,367,18,83,201,32,61,385,83,0,210,71,2,468,1,0,258,22,2,382,86,0,209,74,2,470,0,0,259,21,2,468,0,0,258,21,2,467,1,0,258,22,2,20,450,0,17,248,2,463,6,0,253,25,2,463,7,0,254,26,2,0,470,0,0,259,2,0,470,0,0,259,2,97,373,0,69,215,2,462,6,0,254,25,2,374,29,67,209,34,51
2017-07-06T23:59:59Z,259,472,467,255,472,259,421,244,87,66,0,0,0,0,0,0,0,472,0,259,2,467,2,255,0,0,0,0,0,0,0,0,367,19,84,199,32,62,385,85,0,209,73,2,469,2,0,257,22,2,388,82,0,211,72,2,472,0,0,259,22,2,469,1,0,257,23,2,467,3,0,256,22,2,20,452,0,16,250,2,464,8,0,253,26,2,464,8,0,253,25,2,0,472,0,0,259,2,0,472,0,0,259,2,99,373,0,70,212,2,463,7,0,253,24,2,374,32,66,208,36,50
2017-07-07T23:59:59Z,258,474,469,254,474,258,469,254,89,67,0,0,0,0,0,0,0,474,0,258,2,469,2,254,0,0,0,0,0,0,0,0,369,17,86,199,31,63,389,84,0,209,73,2,470,2,1,256,21,3,388,83,1,209,71,3,474,0,0,258,22,2,469,2,1,256,21,3,471,1,0,257,22,2,20,454,0,16,249,2,467,7,0,253,25,2,466,7,1,252,24,3,0,474,0,0,258,2,0,474,0,0,258,2,99,375,0,70,213,2,466,6,0,253,23,2,375,33,66,206,37,50
2017-07-08T23:59:59Z,258,472,467,254,472,258,466,253,84,64,0,0,0,0,0,0,0,472,0,258,2,466,2,253,0,0,0,0,0,0,0,0,368,19,83,199,31,62,391,81,0,212,71,2,471,0,0,257,19,2,390,80,0,210,69,2,472,0,0,258,19,2,468,1,1,256,20,3,469,1,0,257,20,2,19,453,0,16,248,2,466,6,0,254,23,2,466,6,0,254,23,2,0,472,0,0,258,2,0,472,0,0,258,2,94,378,0,68,213,2,465,4,1,253,21,3,379,31,62,208,35,48
2017-07-09T23:59:59Z,260,474,469,256,474,260,466,255,81,62,0,0,0,0,0,0,0,474,0,260,3,468,3,255,0,0,0,0,0,0,0,0,369,18,85,199,31,64,392,82,0,211,73,2,471,2,0,257,21,2,393,79,0,212,68,2,474,0,0,260,20,2,472,0,0,259,20,2,472,0,0,259,19,2,19,455,0,16,250,2,467,7,0,254,24,2,468,6,0,255,23,2,0,474,0,0,260,2,0,474,0,0,260,2,94,380,0,68,215,2,466,6,0,254,23,2,381,31,62,211,34,48
2017-07-10T23:59:59Z,266,486,480,262,485,266,478,261,86,68,0,0,0,0,0,0,0,486,0,266,3,479,3,260,0,0,0,0,0,0,0,0,380,19,84,205,34,63,401,84,1,215,77,3,482,2,0,262,23,2,401,83,0,216,75,2,486,0,0,266,23,2,483,1,0,264,23,2,483,1,0,264,22,2,20,466,0,17,256,2,478,7,0,259,27,2,478,7,0,259,26,2,0,486,0,0,266,2,0,486,0,0,266,2,99,387,0,72,218,2,476,6,0,259,26,2,388,34,64,213,41,49
2017-07-11T23:59:59Z,265,479,473,260,478,264,472,259,84,66,0,0,0,0,0,0,0,479,0,265,2,474,2,261,0,0,0,0,0,0,0,0,374,18,84,202,32,64,394,85,0,213,75,2,477,0,0,263,20,2,392,85,0,212,76,2,479,0,0,265,21,2,476,0,1,263,20,3,477,0,0,264,21,2,20,459,0,17,254,2,473,5,0,260,24,2,472,6,0,259,25,2,0,479,0,0,265,2,0,479,0,0,265,2,99,380,0,72,216,2,470,5,0,258,23,2,383,32,64,214,36,49
2017-07-12T23:59:59Z,266,479,474,262,478,266,474,262,87,68,0,0,0,0,0,0,0,479,0,266,2,474,2,262,0,0,0,0,0,0,0,0,372,18,86,202,31,65,393,86,0,214,75,2,476,1,0,264,21,2,388,89,0,211,78,2,479,0,0,266,20,2,477,0,0,265,20,2,477,0,0,265,20,2,20,459,0,17,255,2,472,6,0,260,24,2,472,6,0,260,24,2,0,479,0,0,266,2,0,479,0,0,266,2,99,380,0,73,217,2,470,6,0,259,24,2,381,34,64,212,37,50
2017-07-13T23:59:59Z,265,475,470,261,475,265,470,261,87,69,0,0,0,0,0,0,0,475,0,265,2,469,2,261,0,0,0,0,0,0,0,0,370,17,85,202,31,65,389,86,0,213,76,2,472,1,0,263,22,2,387,86,0,212,76,2,475,0,0,265,21,2,472,1,0,264,22,2,473,0,0,264,21,2,20,455,0,17,254,2,468,6,0,260,25,2,468,6,0,260,25,2,0,475,0,0,265,2,0,475,0,0,265,2,99,376,0,73,216,2,468,4,0,259,23,2,377,32,66,211,37,51
2017-07-14T23:59:59Z,264,474,469,260,474,264,467,258,88,68,0,0,0,0,0,0,0,474,0,264,2,467,2,258,0,0,0,0,0,0,0,0,367,19,86,199,31,66,387,87,0,210,77,2,470,2,1,261,21,3,388,85,0,212,74,2,474,0,0,264,20,2,473,0,0,264,19,2,473,0,0,264,20,2,19,454,1,16,254,3,468,5,0,259,23,2,467,6,0,258,23,2,0,474,0,0,264,2,0,474,0,0,264,2,98,376,0,72,215,2,465,6,0,256,23,2,380,31,63,213,35,49
2017-07-15T23:59:58Z,263,476,471,259,476,263,470,258,87,68,0,0,0,0,0,0,2,474,1,262,3,470,2,258,0,0,0,0,0,0,0,0,365,21,88,198,35,65,386,90,0,208,79,1,472,3,0,260,24,1,387,87,1,209,77,2,476,0,0,263,21,1,475,0,0,263,21,1,474,1,0,263,22,1,22,452,2,19,251,2,469,6,0,258,25,1,468,7,0,257,26,1,0,474,2,0,262,2,0,474,2,0,262,2,101,373,2,74,213,2,468,5,0,256,24,1,378,32,66,209,37,51
2017-07-16T23:59:59Z,263,476,469,258,476,263,468,257,91,71,0,0,0,0,0,0,3,473,2,261,3,469,2,257,0,0,0,0,0,0,0,0,362,23,89,198,35,66,386,90,0,210,79,1,473,2,0,261,23,1,386,89,0,212,78,1,476,0,0,263,21,1,475,0,0,263,21,1,474,1,0,263,22,1,20,454,2,17,251,2,470,5,0,258,24,1,470,5,0,258,24,1,0,474,2,0,262,2,0,474,2,0,262,2,100,374,2,73,214,2,467,6,0,256,25,1,377,33,66,210,36,51
2017-07-17T23:59:59Z,261,470,463,255,470,261,462,254,85,66,0,0,0,0,0,0,2,468,1,260,3,464,2,256,0,0,0,0,0,0,0,0,358,24,86,194,36,64,385,85,0,211,75,1,469,0,0,260,21,1,384,85,0,211,76,1,470,0,0,261,21,1,469,0,0,261,21,1,469,0,0,261,21,1,19,449,2,16,250,2,463,6,0,255,24,1,463,6,0,255,24,1,0,468,2,0,260,2,0,468,2,0,260,2,99,369,2,71,212,2,461,6,0,253,25,1,376,30,64,212,34,50
2017-07-18T23:59:59Z,260,468,461,254,468,260,460,254,87,67,0,0,0,0,0,0,2,466,1,259,2,463,1,256,0,0,0,0,0,0,0,0,358,23,85,195,34,64,382,86,0,209,74,1,466,1,0,259,20,1,381,86,0,209,74,1,468,0,0,260,19,1,466,1,0,260,20,1,467,0,0,260,19,1,20,446,2,17,248,2,463,4,0,256,21,1,463,4,0,256,21,1,0,466,2,0,259,2,0,466,2,0,259,2,99,367,2,72,211,2,461,4,0,254,21,1,373,32,63,209,34,49
2017-07-19T23:59:59Z,260,466,459,254,466,260,459,254,87,68,0,0,0,0,0,0,0,466,0,260,2,460,1,255,0,0,0,0,0,0,0,0,357,22,85,196,35,63,380,86,0,209,76,1,464,1,0,258,20,1,380,85,0,210,75,1,466,0,0,260,20,1,464,1,0,259,20,1,464,1,0,259,20,1,19,447,0,16,250,1,460,5,0,255,23,1,459,5,1,254,23,2,0,466,0,0,260,1,0,465,1,0,260,2,100,366,0,74,211,1,459,5,0,254,22,1,371,32,63,209,34,49
2017-07-20T23:59:58Z,261,469,462,255,469,261,461,255,86,68,0,0,0,0,0,0,0,469,0,261,3,461,2,254,0,0,0,0,0,0,0,0,363,22,82,199,34,61,385,84,0,210,75,1,466,2,0,258,21,1,386,82,0,213,74,1,469,0,0,261,20,2,466,2,0,259,22,1,466,2,0,260,22,1,20,449,0,17,250,1,461,7,0,255,24,1,460,8,0,254,25,1,0,469,0,0,261,1,0,469,0,0,261,1,95,374,0,70,215,1,461,6,0,254,23,1,374,32,63,210,35,50
2017-07-21T23:59:59Z,264,474,467,258,474,264,466,257,88,69,0,0,0,0,0,0,2,472,1,263,2,468,1,259,0,0,0,0,0,0,0,0,362,23,87,200,35,64,388,86,0,214,78,1,470,3,0,262,22,1,389,84,0,215,76,1,474,0,0,264,21,1,471,1,0,263,21,1,469,3,0,263,23,1,21,450,3,17,253,3,466,7,0,258,24,1,465,7,0,258,24,1,0,472,2,0,263,2,0,472,2,0,263,2,97,375,2,71,215,2,467,4,0,258,23,1,377,33,64,213,35,50
2017-07-22T23:59:58Z,260,468,461,254,468,260,460,254,82,64,0,0,0,0,0,0,2,466,1,259,2,462,1,255,0,0,0,0,0,0,0,0,358,21,87,196,34,64,385,83,0,211,73,1,467,0,0,259,19,1,384,83,0,211,73,1,468,0,0,260,20,1,466,0,0,259,19,1,466,0,0,260,19,1,20,446,2,17,248,2,463,4,0,256,22,1,462,4,0,255,21,1,0,465,3,0,259,3,0,466,2,0,259,2,96,370,2,70,212,2,461,4,0,254,22,1,374,30,64,211,33,49
2017-07-23T23:59:59Z,258,467,459,252,467,258,459,252,86,64,0,0,0,0,0,0,2,464,1,257,2,460,1,253,0,0,0,0,0,0,0,0,358,20,86,196,31,63,382,85,0,209,73,1,466,0,0,257,19,1,381,85,0,209,73,1,467,0,0,258,19,1,465,0,0,257,18,1,465,0,0,258,19,1,20,445,2,17,246,2,462,4,0,254,21,1,461,4,0,253,21,1,0,465,2,0,257,2,0,465,2,0,257,2,99,366,2,71,209,2,459,4,0,252,21,1,374,29,64,211,31,49
2017-07-24T23:59:59Z,263,472,465,257,472,263,464,256,86,66,0,0,0,0,0,0,2,470,1,262,2,466,1,258,0,0,0,0,0,0,0,0,362,21,87,201,32,63,388,84,0,215,72,1,471,0,0,262,19,1,389,82,0,216,72,1,472,0,0,263,19,1,470,0,0,262,18,1,469,1,0,262,19,1,20,450,2,17,251,2,467,4,0,259,20,1,466,4,0,258,20,1,0,470,2,0,262,2,0,470,2,0,262,2,99,371,2,71,214,2,464,5,0,256,21,1,377,31,64,214,33,49
2017-07-25T23:59:59Z,263,473,466,257,473,263,464,256,84,67,0,0,0,0,0,0,2,471,1,262,2,468,1,259,0,0,0,0,0,0,0,0,363,22,86,200,35,63,389,84,0,214,75,1,472,0,0,262,20,1,387,85,0,213,76,1,473,0,0,263,20,1,471,0,0,262,20,1,471,0,0,263,20,1,20,451,2,17,251,2,468,4,0,259,22,1,466,5,0,258,23,1,0,471,2,0,262,2,0,471,2,0,262,2,98,373,2,72,213,2,465,5,0,257,23,1,377,30,66,213,34,51
2017-07-26T23:59:59Z,265,474,467,259,474,265,465,258,83,66,0,0,0,0,0,0,2,472,1,264,2,469,1,261,0,0,0,0,0,0,0,0,363,22,87,201,36,64,388,86,0,214,77,1,470,2,0,262,23,1,386,86,0,214,77,1,474,0,0,265,21,1,472,0,0,264,21,1,472,0,0,265,21,1,21,450,2,18,251,2,467,5,0,260,24,1,468,4,0,260,23,1,0,472,2,0,264,2,0,472,2,0,264,2,101,371,2,75,213,2,466,4,0,258,23,1,377,30,67,213,34,52
2017-07-27T23:59:59Z,263,468,461,257,468,263,460,256,86,66,0,0,0,0,0,0,2,466,1,262,2,462,2,258,0,0,0,0,0,0,0,0,360,23,83,201,34,62,385,83,0,215,75,2,467,0,0,262,21,1,385,82,0,215,73,2,468,0,0,263,21,1,465,1,0,261,22,1,464,2,0,262,21,1,22,443,2,18,250,3,460,6,0,257,23,1,460,6,0,257,22,1,0,466,2,0,262,2,0,466,2,0,262,2,101,365,2,75,213,2,461,4,0,257,23,2,371,31,66,212,34,50
2017-07-28T23:59:59Z,259,468,461,253,468,259,459,251,84,64,0,0,0,0,0,0,0,468,0,259,3,462,2,254,0,0,0,0,0,0,0,0,359,22,85,198,34,62,385,83,0,212,72,1,466,1,0,258,20,1,385,82,0,213,71,1,468,0,0,259,19,1,466,1,0,258,20,1,466,0,0,259,19,1,20,446,1,17,247,2,460,6,0,253,23,1,460,6,0,253,23,1,0,468,0,0,259,1,0,468,0,0,259,1,99,369,0,72,212,1,460,5,0,252,22,1,372,28,68,210,32,51
2017-07-29T23:59:59Z,257,459,452,251,459,257,451,250,83,63,0,0,0,0,0,0,0,459,0,257,2,453,1,252,0,0,0,0,0,0,0,0,356,21,80,198,32,58,380,79,0,211,68,1,458,0,0,256,18,1,379,79,0,211,68,1,459,0,0,257,18,2,458,0,0,256,17,1,457,0,0,257,17,1,21,437,0,18,244,1,453,4,0,252,20,1,453,4,0,252,19,1,0,459,0,0,257,1,0,459,0,0,257,1,94,365,0,68,210,1,451,4,1,250,19,1,367,29,63,208,31,48
2017-07-30T23:59:59Z,260,464,457,254,464,260,457,254,85,67,0,0,0,0,0,0,0,464,0,260,3,458,2,255,0,0,0,0,0,0,0,0,355,22,85,198,35,62,379,85,0,210,75,1,461,2,0,258,22,1,380,83,0,213,73,1,464,0,0,260,20,1,463,0,0,259,20,1,461,1,0,260,21,1,21,442,0,18,247,1,456,6,0,254,24,1,457,5,0,254,23,1,0,464,0,0,260,1,0,464,0,0,260,1,98,366,0,71,211,1,456,5,0,253,23,1,367,30,67,208,34,51
2017-07-31T23:59:59Z,259,461,453,253,461,259,453,253,88,68,0,0,0,0,0,0,0,461,0,259,2,456,1,255,0,0,0,0,0,0,0,0,356,20,84,198,33,62,377,84,0,210,73,2,460,0,0,258,20,2,377,83,0,210,71,2,461,0,0,259,20,1,460,0,0,258,19,1,459,0,0,259,19,2,22,439,0,18,247,1,455,4,0,255,21,2,455,4,0,254,22,2,0,461,0,0,259,2,0,461,0,0,259,2,99,362,0,71,211,2,454,4,0,253,22,1,364,30,67,207,34,50
2017-08-01T23:59:59Z,262,465,458,256,465,262,456,254,88,68,0,0,0,0,0,0,2,463,1,261,2,460,1,258,0,0,0,0,0,0,0,0,358,21,85,199,35,62,380,85,0,211,75,1,463,1,0,260,21,1,379,85,0,212,75,1,465,0,0,262,21,1,464,0,0,261,20,1,463,0,0,262,20,1,21,442,2,18,249,2,459,4,0,257,22,1,459,4,0,257,23,2,0,463,2,0,261,2,0,462,3,0,260,4,99,364,2,72,212,2,458,4,0,256,22,1,368,29,68,210,33,51
2017-08-02T23:59:59Z,260,462,455,254,462,260,454,253,84,65,0,0,0,0,0,0,2,460,1,259,2,457,1,256,0,0,0,0,0,0,0,0,356,20,85,198,32,62,379,83,0,212,72,1,461,0,0,259,19,1,378,83,0,212,72,1,462,0,0,260,19,1,461,0,0,259,19,1,460,0,0,260,19,1,22,438,2,19,246,2,455,5,0,255,22,1,455,5,0,255,22,1,0,460,2,0,259,2,0,460,2,0,259,2,97,363,2,70,211,2,454,5,0,254,22,1,365,30,67,209,34,50
2017-08-03T23:59:59Z,263,466,459,257,466,263,457,255,86,65,0,0,0,0,0,0,2,464,1,262,3,460,2,258,0,0,0,0,0,0,0,0,358,22,85,200,34,61,381,85,0,212,73,1,464,1,0,261,20,1,382,83,0,214,72,1,466,0,0,263,20,1,464,1,0,261,20,1,462,2,0,261,22,1,21,443,2,18,250,2,458,6,0,256,24,1,458,6,0,256,23,1,0,464,2,0,262,2,0,464,2,0,262,2,99,365,2,72,214,2,458,5,0,256,23,1,369,31,66,210,34,50
2017-08-04T23:59:58Z,262,465,458,256,465,262,456,255,83,64,0,0,0,0,0,0,2,463,1,261,2,460,1,258,0,0,0,0,0,0,0,0,359,20,85,202,32,61,381,84,0,213,73,1,464,0,0,261,20,1,382,82,0,214,71,1,465,0,0,262,20,1,464,0,0,261,19,1,462,1,0,261,20,1,21,442,2,18,249,2,459,4,0,257,22,1,459,4,0,257,21,1,0,463,2,0,261,2,0,462,3,0,261,3,96,367,2,69,214,2,457,5,0,255,23,1,370,28,67,212,32,50
2017-08-05T23:59:59Z,265,470,463,259,470,265,462,258,86,66,0,0,0,0,0,0,2,468,1,264,3,464,2,260,0,0,0,0,0,0,0,0,361,24,84,203,35,61,383,87,0,215,75,1,465,4,0,262,22,1,386,83,0,218,73,1,470,0,0,265,20,1,468,1,0,264,21,1,466,2,0,264,22,1,24,444,2,20,252,2,462,6,0,259,24,1,462,6,0,259,24,1,0,468,2,0,264,2,0,468,2,0,264,2,101,367,2,73,213,2,458,8,1,257,24,2,370,32,68,211,35,51
2017-08-06T23:59:59Z,263,466,458,257,466,263,456,255,88,68,0,0,0,0,0,0,0,466,0,263,2,461,1,259,0,0,0,0,0,0,0,0,362,21,82,203,33,60,383,83,0,215,72,1,464,1,0,262,20,1,382,83,0,214,72,1,466,0,0,263,19,1,464,1,0,262,20,1,463,1,0,263,20,1,22,444,0,18,251,1,458,6,0,258,23,1,459,5,0,257,22,1,0,466,0,0,263,1,0,466,0,0,263,1,101,365,0,72,213,1,458,5,0,257,22,1,368,29,69,211,33,51
2017-08-07T23:59:59Z,261,462,455,255,462,261,453,254,83,63,0,0,0,0,0,0,0,462,0,261,3,456,2,256,0,0,0,0,0,0,0,0,357,24,80,200,35,58,380,82,0,212,71,1,459,2,0,258,20,1,380,81,0,213,70,1,462,0,0,261,18,1,459,2,0,259,20,1,457,3,0,259,21,1,20,442,0,17,250,1,453,7,0,254,23,1,453,7,0,254,23,1,0,462,0,0,261,1,0,462,0,0,261,1,97,365,0,71,213,1,454,5,0,254,21,1,366,32,64,208,35,49
2017-08-08T23:59:59Z,260,464,457,254,464,260,455,252,83,64,0,0,0,0,0,0,2,462,1,259,2,459,1,256,0,0,0,0,0,0,0,0,360,21,82,200,31,59,384,80,0,213,69,1,461,2,0,258,19,1,383,80,0,213,69,1,464,0,0,260,17,1,463,0,0,259,17,1,461,1,0,260,18,1,20,442,2,17,248,2,457,5,1,254,20,2,456,6,0,254,21,1,0,462,2,0,259,2,0,462,2,0,259,2,93,369,2,67,213,2,456,5,0,253,20,1,368,31,65,209,34,49
2017-08-09T23:59:59Z,261,464,457,255,464,261,456,255,83,64,0,0,0,0,0,0,3,461,2,259,2,458,1,256,0,0,0,0,0,0,0,0,361,22,80,202,34,58,382,82,0,213,73,1,463,0,0,260,19,1,384,80,0,215,71,1,464,0,0,261,19,1,462,1,0,260,20,1,463,0,0,261,19,1,21,441,2,18,248,2,457,6,0,256,23,1,457,5,0,255,22,1,1,461,2,1,260,2,1,461,2,1,259,2,94,368,2,68,213,2,455,5,1,253,22,2,369,30,65,211,34,51
2017-08-10T23:59:58Z,259,461,453,253,460,258,452,252,88,66,0,0,0,0,0,0,2,459,1,258,2,456,1,255,0,0,0,0,0,0,0,0,355,21,84,199,31,60,378,82,1,211,70,2,459,1,0,257,18,1,379,82,0,212,70,1,461,0,0,259,17,1,459,1,0,258,18,1,459,1,0,259,18,1,21,438,2,17,247,2,456,4,0,255,19,1,453,6,0,253,21,1,0,459,2,0,258,2,0,459,2,0,258,2,98,361,2,69,210,2,454,4,0,253,19,1,362,31,68,207,33,50
2017-08-11T23:59:59Z,260,461,454,254,460,259,453,253,85,64,0,0,0,0,0,0,3,458,2,258,2,456,1,256,0,0,0,0,0,0,0,0,355,21,84,200,31,59,380,81,0,212,69,1,459,1,0,259,18,1,378,83,0,210,71,1,461,0,0,260,17,1,459,1,0,259,18,1,460,0,0,260,17,1,20,439,2,17,248,2,456,4,0,256,19,1,454,4,1,254,19,2,0,459,2,0,259,2,0,459,2,0,259,2,97,362,2,70,210,2,454,4,0,254,19,1,364,30,67,208,33,50
2017-08-12T23:59:59Z,264,465,457,258,464,263,457,258,87,66,0,0,0,0,0,0,2,463,1,263,2,460,1,260,0,0,0,0,0,0,0,0,359,21,83,202,34,61,380,84,0,213,75,2,463,0,0,263,21,2,382,82,0,215,73,2,465,0,0,264,21,2,464,0,0,263,21,2,464,0,0,264,21,2,24,438,3,19,250,4,458,6,0,259,22,2,456,6,1,257,23,3,2,461,2,2,262,3,0,462,3,0,262,4,98,364,2,71,214,3,456,6,0,257,23,1,363,34,68,209,36,52
2017-08-13T23:59:59Z,263,469,459,257,469,263,458,256,87,67,0,0,0,0,0,0,2,467,1,262,2,464,1,259,0,0,0,0,0,0,0,0,360,23,85,200,33,62,384,85,0,212,75,1,468,0,0,262,20,1,386,83,0,213,73,1,469,0,0,263,20,1,468,0,0,262,20,1,468,0,0,263,19,1,21,446,2,16,251,2,463,5,0,258,23,1,462,5,0,257,22,1,0,467,2,0,262,2,0,467,2,0,262,2,97,367,5,71,212,4,462,4,0,257,22,1,369,32,68,211,35,51
2017-08-14T23:59:59Z,265,471,462,259,471,265,461,258,87,66,0,0,0,0,0,0,2,469,1,264,2,466,1,261,0,0,0,0,0,0,0,0,364,21,85,202,31,62,388,83,0,215,71,1,469,1,0,264,19,1,389,82,0,216,70,1,471,0,0,265,18,1,470,0,0,264,18,1,470,0,0,265,18,1,22,447,2,18,251,2,466,4,0,261,20,1,464,5,0,260,21,1,0,469,2,0,264,2,0,469,2,0,264,2,97,372,2,70,215,2,464,4,0,259,20,1,371,34,66,212,36,50
2017-08-15T23:59:59Z,265,476,467,259,476,265,466,258,86,66,0,0,0,0,0,0,2,474,1,264,2,471,1,261,0,0,0,0,0,0,0,0,367,22,86,201,32,63,393,83,0,216,71,1,475,0,0,264,19,1,395,81,0,217,70,1,476,0,0,265,19,1,475,0,0,264,19,1,475,0,0,265,19,1,22,452,2,18,251,2,471,4,0,261,21,1,470,4,0,260,21,1,0,474,2,0,264,2,0,474,2,0,264,2,98,376,2,71,214,2,469,4,0,259,20,1,377,32,67,213,35,50
2017-08-16T23:59:58Z,265,477,468,259,477,265,466,257,88,68,0,0,0,0,0,0,2,475,1,264,3,471,2,260,0,0,0,0,0,0,0,0,366,26,84,199,35,62,393,84,0,215,72,1,474,2,0,263,19,1,397,80,0,217,70,1,477,0,0,265,19,1,474,2,0,263,21,1,475,1,0,264,20,1,23,452,2,18,253,2,471,5,0,260,22,1,470,5,0,259,22,1,3,472,2,2,263,2,0,475,2,0,264,2,99,376,2,71,215,2,466,8,0,257,23,1,376,36,65,211,38,50